GW0363 Weather Reports


time (UTC)temp
C
wind
direction
speed
KPH
gust
KPH
rain 1hr
cm
rain 24hr
cm
rain mn
cm
humidity
%
barometer
mb
20260504081227 13 22 0.0 0.0 0.00 0.00 0.00 70 1014.2
20260504045646 17 227 1.6 1.6 0.00 0.00 0.00 55 1014.2
20260504044146 17 229 1.6 1.6 0.00 0.00 0.00 59 1014.3
20260504042644 18 172 0.0 1.6 0.00 0.00 0.00 54 1014.3
20260504041144 18 171 1.6 1.6 0.00 0.00 0.00 54 1014.3
20260504035640 19 76 1.6 1.6 0.00 0.00 0.00 50 1014.3
20260504034137 20 60 0.0 1.6 0.00 0.00 0.00 48 1014.2
20260504032635 22 92 1.6 1.6 0.00 0.00 0.00 43 1014.3
20260504031131 23 126 1.6 1.6 0.00 0.00 0.00 37 1014.3
20260504025627 23 43 0.0 0.0 0.00 0.00 0.00 38 1014.4
20260504024124 23 41 0.0 0.0 0.00 0.00 0.00 40 1014.4
20260504022619 24 42 0.0 1.6 0.00 0.00 0.00 35 1014.4
20260504021115 25 33 1.6 1.6 0.00 0.00 0.00 35 1014.7
20260504015611 25 32 0.0 0.0 0.00 0.00 0.00 35 1014.6
20260504014107 25 19 1.6 1.6 0.00 0.00 0.00 29 1014.8
20260504012604 25 23 1.6 3.2 0.00 0.00 0.00 31 1014.8
20260504011100 25 13 1.6 1.6 0.00 0.00 0.00 30 1014.9
20260504005600 26 29 3.2 4.8 0.00 0.00 0.00 32 1015.1
20260504004059 26 25 3.2 3.2 0.00 0.00 0.00 29 1015.1
20260504002554 26 37 3.2 3.2 0.00 0.00 0.00 29 1015.5
20260504001051 26 12 3.2 3.2 0.00 0.00 0.00 29 1015.5
20260503235550 26 3 1.6 1.6 0.00 0.00 0.00 31 1015.8
20260503234048 26 347 4.8 8.0 0.00 0.00 0.00 32 1015.8
20260503232544 26 49 4.8 4.8 0.00 0.00 0.00 30 1016.0
20260503231041 26 31 4.8 4.8 0.00 0.00 0.00 33 1016.4
20260503225538 26 31 4.8 8.0 0.00 0.00 0.00 35 1016.7
20260503224034 25 4 1.6 3.2 0.00 0.00 0.00 39 1016.8
20260503222531 25 0 4.8 8.0 0.00 0.00 0.00 36 1017.1
20260503221030 25 20 1.6 3.2 0.00 0.00 0.00 37 1017.3
20260503215526 25 13 4.8 4.8 0.00 0.00 0.00 35 1017.3
20260503214023 24 350 4.8 4.8 0.00 0.00 0.00 36 1017.4
20260503212521 24 36 4.8 4.8 0.00 0.00 0.00 40 1017.6
20260503211016 24 354 4.8 4.8 0.00 0.00 0.00 41 1017.7
20260503205512 24 120 3.2 3.2 0.00 0.00 0.00 38 1017.8
20260503204008 23 354 6.4 8.0 0.00 0.00 0.00 40 1017.9
20260503202506 23 75 4.8 4.8 0.00 0.00 0.00 40 1018.1
20260503201004 23 23 4.8 8.0 0.00 0.00 0.00 40 1018.5
20260503195500 22 29 6.4 9.7 0.00 0.00 0.00 43 1018.7
20260503194000 22 317 4.8 4.8 0.00 0.00 0.00 45 1018.9
20260503192500 22 9 6.4 9.7 0.00 0.00 0.00 44 1019.0
20260503190955 22 43 3.2 3.2 0.00 0.00 0.00 44 1018.7
20260503185452 21 12 1.6 3.2 0.00 0.00 0.00 45 1019.1
20260503183950 22 28 4.8 4.8 0.00 0.00 0.00 45 1019.2
20260503182449 21 13 4.8 8.0 0.00 0.00 0.00 50 1019.1
20260503180944 21 16 8.0 11.3 0.00 0.00 0.00 50 1019.4
20260503175443 21 215 4.8 4.8 0.00 0.00 0.00 47 1019.6
20260503173943 20 17 4.8 8.0 0.00 0.00 0.00 52 1019.6
20260503172440 19 32 4.8 8.0 0.00 0.00 0.00 53 1019.8
20260503170936 19 33 9.7 14.5 0.00 0.00 0.00 54 1019.7